Flag for New Zealand Weather past 2 weeks in Auckland, New Zealand

Now
54 °F

Broken clouds.


Feels Like: 47 °F
Forecast: 54 / 57 °F
Wind: 25 mph from West

Location: Auckland Airport

Current Time: Sep 3, 2015 at 7:53:30 AM

Latest Report: Sep 3, 2015 at 7:00 AM


Visibility: N/A

Pressure: 29.62 "Hg

Humidity: 82%

Dew point: 48 °F

Location of AucklandLocation

Historic Weather in Auckland — Graph

°F

Auckland temperature yesterday

Maximum temperature yesterday: 64 °F (at 12:00 PM)
Minimum temperature yesterday: 52 °F (at 12:30 AM)
Average temperature yesterday: 57 °F

Past Weeks' High & Low Weather Summary

 TemperatureHumidityPressure
High64 °F (Sep 1, 2:30 PM)100% (Aug 19, 12:30 PM)30.54 "Hg (Aug 19, 12:30 PM)
Low41 °F (Aug 21, 6:00 AM)55% (Aug 21, 1:00 PM)29.50 "Hg (Sep 2, 9:30 PM)
Average54 °F85%30.16 "Hg
* Reported Aug 19 6:00 AM — Sep 3 6:30 AM, Auckland, Weather by CustomWeather, © 2015

Note: Actual official high and low records may vary slightly from our data, if they occured in-between our weather recording intervals... More about our weather records

Advertising

Auckland weather history for previous 24 hours

 ConditionsComfort  
Time TempWeatherWind HumidityBarometerVisibility
6:30 AM
Thu, Sep 3
54 °FSprinkles. Broken clouds.24 mph82%29.59 "HgN/A
6:00 AM52 °FSprinkles. Partly sunny.24 mph94%29.59 "Hg4 mi
5:30 AM54 °FSprinkles. Overcast.28 mph88%29.59 "Hg3 mi
5:00 AM54 °FPartly cloudy.23 mph88%29.59 "HgN/A
4:30 AM54 °FLight rain. Partly cloudy.26 mph88%29.56 "Hg6 mi
4:00 AM55 °FPassing clouds.22 mph77%29.56 "HgN/A
3:30 AM55 °FPartly cloudy.25 mph77%29.56 "HgN/A
3:00 AM55 °FPassing clouds.26 mph82%29.53 "HgN/A
2:30 AM54 °FMostly cloudy.18 mph88%29.53 "HgN/A
2:00 AM55 °FSprinkles. Mostly cloudy.22 mph82%29.53 "HgN/A
1:30 AM55 °FSprinkles. Mostly cloudy.24 mph82%29.53 "HgN/A
1:00 AM55 °FOvercast.26 mph82%29.53 "HgN/A
12:30 AM55 °FSprinkles. Mostly cloudy.25 mph88%29.50 "Hg5 mi
12:00 AM55 °FSprinkles. Passing clouds.22 mph88%29.50 "Hg4 mi
11:30 PM
Wed, Sep 2
55 °FPassing clouds.18 mph88%29.50 "HgN/A
11:00 PM54 °FLight rain. Passing clouds.10 mph94%29.50 "HgN/A
10:30 PM54 °FLight rain. Partly cloudy.15 mph94%29.50 "HgN/A
10:00 PM54 °FSprinkles. Partly cloudy.17 mph94%29.50 "Hg6 mi
9:30 PM54 °FPassing clouds.14 mph94%29.50 "HgN/A
9:00 PM54 °FLight rain. Passing clouds.13 mph94%29.53 "HgN/A
8:30 PM54 °FLight rain. Passing clouds.25 mph88%29.53 "HgN/A
8:00 PM59 °FPassing clouds.14 mph72%29.53 "HgN/A
7:30 PM59 °FPassing clouds.14 mph72%29.53 "HgN/A
7:00 PM59 °FLight rain. Passing clouds.12 mph77%29.56 "HgN/A
6:30 PM59 °FPassing clouds.12 mph77%29.56 "HgN/A
6:00 PM61 °FPassing clouds.12 mph72%29.56 "HgN/A
5:30 PM63 °FPassing clouds.16 mph64%29.56 "HgN/A
5:00 PM63 °FPassing clouds.16 mph68%29.59 "HgN/A
4:00 PM64 °FScattered clouds.17 mph64%29.59 "HgN/A
3:30 PM64 °FMild.16 mph64%29.59 "HgN/A
3:00 PM64 °FBroken clouds.21 mph68%29.62 "HgN/A
2:30 PM64 °FPassing clouds.17 mph64%29.62 "HgN/A
2:00 PM64 °FScattered clouds.16 mph68%29.65 "HgN/A
1:30 PM63 °FBroken clouds.17 mph68%29.65 "HgN/A
1:00 PM61 °FLight rain. Broken clouds.14 mph77%29.68 "HgN/A
12:30 PM61 °FLight rain. Broken clouds.12 mph77%29.68 "HgN/A
12:00 PM64 °FMild.13 mph64%29.71 "HgN/A
11:30 AM63 °FPassing clouds.13 mph68%29.71 "HgN/A
11:00 AM63 °FScattered clouds.13 mph68%29.74 "HgN/A
10:30 AM61 °FCool.13 mph77%29.74 "HgN/A
9:30 AM59 °FScattered clouds.10 mph82%29.74 "HgN/A
9:00 AM57 °FPassing clouds.6 mph88%29.74 "HgN/A
8:30 AM57 °FCool.7 mph88%29.77 "HgN/A
8:00 AM54 °FPassing clouds.5 mph100%29.77 "HgN/A
7:30 AM54 °FOvercast.5 mph100%29.77 "HgN/A
7:00 AM54 °FLow clouds.5 mph100%29.77 "HgN/A
Weather by CustomWeather, © 2015

See weather overviewHow to use our weather pages